EN

Hourly Weather Bondarnya

Today, 16 April, Friday

Time Temperature Precipitation Wind Pressure Humidity
00:00 +7°C° 0 mm 3 mps 744 mmHg 92%
01:00 +5°C° 0 mm 3 mps 743 mmHg 92%
02:00 +5°C° 0 mm 3 mps 743 mmHg 92%
03:00 +6°C° 0.1 mm 2 mps 743 mmHg 92%
04:00 +6°C° 0.1 mm 2 mps 743 mmHg 92%
05:00 +6°C° 0.1 mm 2 mps 743 mmHg 92%
06:00 +6°C° 0.1 mm 2 mps 743 mmHg 91%
07:00 +6°C° 0.1 mm 2 mps 743 mmHg 90%
08:00 +6°C° 0.1 mm 2 mps 744 mmHg 89%
09:00 +6°C° 0.1 mm 2 mps 744 mmHg 86%
10:00 +6°C° 0.1 mm 2 mps 744 mmHg 84%
11:00 +7°C° 0.1 mm 2 mps 744 mmHg 82%
12:00 +7°C° 0 mm 2 mps 744 mmHg 81%
13:00 +7°C° 0 mm 2 mps 744 mmHg 80%
14:00 +8°C° 0 mm 2 mps 745 mmHg 79%
15:00 +7°C° 0 mm 2 mps 745 mmHg 80%
16:00 +7°C° 0 mm 3 mps 745 mmHg 81%
17:00 +7°C° 0 mm 3 mps 745 mmHg 82%
18:00 +5°C° 0 mm 3 mps 745 mmHg 86%
19:00 +4°C° 0 mm 3 mps 746 mmHg 90%
20:00 +3°C° 0 mm 3 mps 746 mmHg 93%
21:00 +3°C° 0 mm 3 mps 746 mmHg 93%
22:00 +3°C° 0 mm 3 mps 747 mmHg 93%
23:00 +3°C° 0 mm 3 mps 747 mmHg 92%

Tomorrow, 17 April, Saturday

Time Temperature Precipitation Wind Pressure Humidity
00:00 +3°C° 0 mm 3 mps 747 mmHg 92%
01:00 +3°C° 0 mm 3 mps 747 mmHg 92%
02:00 +3°C° 0 mm 2 mps 747 mmHg 91%
03:00 +3°C° 0 mm 2 mps 748 mmHg 91%
04:00 +3°C° 0 mm 2 mps 748 mmHg 91%
05:00 +3°C° 0 mm 2 mps 748 mmHg 91%
06:00 +4°C° 0 mm 2 mps 748 mmHg 90%
07:00 +4°C° 0 mm 2 mps 749 mmHg 89%
08:00 +4°C° 0 mm 2 mps 749 mmHg 87%
09:00 +5°C° 0 mm 1 mps 749 mmHg 88%
10:00 +5°C° 0 mm 1 mps 750 mmHg 88%
11:00 +6°C° 0 mm 1 mps 750 mmHg 89%
12:00 +6°C° 0 mm 1 mps 750 mmHg 87%
13:00 +6°C° 0 mm 1 mps 750 mmHg 85%
14:00 +7°C° 0 mm 1 mps 750 mmHg 83%
15:00 +7°C° 0 mm 1 mps 750 mmHg 82%
16:00 +7°C° 0 mm 1 mps 750 mmHg 80%
17:00 +7°C° 0 mm 1 mps 750 mmHg 79%
18:00 +7°C° 0 mm 1 mps 750 mmHg 80%
19:00 +6°C° 0 mm 1 mps 750 mmHg 82%
20:00 +6°C° 0 mm 1 mps 751 mmHg 84%
21:00 +6°C° 0 mm 1 mps 750 mmHg 84%
22:00 +6°C° 0 mm 1 mps 750 mmHg 85%
23:00 +5°C° 0 mm 1 mps 750 mmHg 85%

Day after tomorrow, 18 April, Sunday

Time Temperature Precipitation Wind Pressure Humidity
00:00 +5°C° 0 mm 1 mps 750 mmHg 86%
01:00 +5°C° 0 mm 1 mps 750 mmHg 87%
02:00 +5°C° 0 mm 1 mps 750 mmHg 87%
03:00 +5°C° 0 mm 1 mps 750 mmHg 86%
04:00 +5°C° 0 mm 1 mps 750 mmHg 84%
05:00 +5°C° 0 mm 1 mps 750 mmHg 83%
06:00 +5°C° 0 mm 1 mps 750 mmHg 79%
07:00 +6°C° 0 mm 1 mps 750 mmHg 74%
08:00 +7°C° 0 mm 1 mps 750 mmHg 70%
09:00 +9°C° 0 mm 1 mps 750 mmHg 66%
10:00 +10°C° 0 mm 1 mps 750 mmHg 61%
11:00 +11°C° 0 mm 1 mps 750 mmHg 56%
12:00 +12°C° 0 mm 1 mps 749 mmHg 53%
13:00 +13°C° 0 mm 1 mps 749 mmHg 50%
14:00 +14°C° 0 mm 1 mps 749 mmHg 48%
15:00 +14°C° 0 mm 1 mps 749 mmHg 49%
16:00 +14°C° 0 mm 1 mps 749 mmHg 50%
17:00 +13°C° 0 mm 2 mps 749 mmHg 51%
18:00 +12°C° 0 mm 2 mps 749 mmHg 61%
19:00 +9°C° 0 mm 2 mps 749 mmHg 70%
20:00 +8°C° 0 mm 2 mps 749 mmHg 80%
21:00 +8°C° 0 mm 2 mps 749 mmHg 82%
22:00 +8°C° 0 mm 2 mps 749 mmHg 83%
23:00 +8°C° 0 mm 2 mps 749 mmHg 85%

19 April, Monday

Time Temperature Precipitation Wind Pressure Humidity
00:00 +8°C° 0 mm 2 mps 749 mmHg 87%
01:00 +8°C° 0 mm 2 mps 749 mmHg 88%
02:00 +8°C° 0 mm 2 mps 749 mmHg 89%
03:00 +7°C° 0 mm 2 mps 749 mmHg 90%
04:00 +7°C° 0 mm 3 mps 749 mmHg 90%
05:00 +7°C° 0 mm 3 mps 749 mmHg 90%
06:00 +7°C° 0 mm 3 mps 749 mmHg 87%
07:00 +6°C° 0 mm 4 mps 749 mmHg 84%
08:00 +6°C° 0 mm 4 mps 749 mmHg 81%
09:00 +7°C° 0 mm 4 mps 749 mmHg 75%
10:00 +10°C° 0 mm 4 mps 749 mmHg 68%
11:00 +11°C° 0 mm 4 mps 748 mmHg 62%
12:00 +10°C° 0 mm 4 mps 748 mmHg 62%
13:00 +10°C° 0 mm 4 mps 748 mmHg 62%
14:00 +9°C° 0 mm 5 mps 748 mmHg 62%
15:00 +9°C° 0 mm 5 mps 747 mmHg 64%
16:00 +10°C° 0 mm 4 mps 747 mmHg 65%
17:00 +8°C° 0 mm 4 mps 747 mmHg 67%
18:00 +8°C° 0 mm 4 mps 746 mmHg 71%
19:00 +7°C° 0 mm 5 mps 746 mmHg 74%
20:00 +7°C° 0 mm 5 mps 745 mmHg 78%
21:00 +7°C° 0 mm 5 mps 745 mmHg 80%
22:00 +6°C° 0 mm 5 mps 744 mmHg 83%
23:00 +6°C° 0 mm 5 mps 744 mmHg 85%

20 April, Tuesday

Time Temperature Precipitation Wind Pressure Humidity
00:00 +4°C° 0 mm 6 mps 743 mmHg 88%
01:00 +4°C° 0 mm 6 mps 742 mmHg 91%
02:00 +3°C° 0 mm 6 mps 742 mmHg 94%
03:00 +4°C° 0.1 mm 7 mps 741 mmHg 92%
04:00 +4°C° 0.1 mm 7 mps 741 mmHg 91%
05:00 +4°C° 0.1 mm 7 mps 740 mmHg 89%
06:00 +4°C° 0.7 mm 8 mps 739 mmHg 89%
07:00 +4°C° 0.7 mm 8 mps 739 mmHg 89%
08:00 +3°C° 0.7 mm 9 mps 738 mmHg 89%
09:00 +4°C° 1.7 mm 8 mps 737 mmHg 90%
10:00 +4°C° 1.7 mm 8 mps 737 mmHg 92%
11:00 +4°C° 1.7 mm 8 mps 736 mmHg 93%
12:00 +4°C° 1.6 mm 8 mps 736 mmHg 94%
13:00 +2°C° 1.6 mm 8 mps 736 mmHg 95%
14:00 +2°C° 1.6 mm 8 mps 735 mmHg 96%
15:00 +1°C° 1.2 mm 8 mps 735 mmHg 96%
16:00 +2°C° 1.2 mm 7 mps 735 mmHg 96%
17:00 0°C° 1.2 mm 7 mps 735 mmHg 96%
18:00 +1°C° 1.1 mm 6 mps 735 mmHg 96%
19:00 +1°C° 1.1 mm 6 mps 735 mmHg 96%
20:00 +1°C° 1.1 mm 6 mps 735 mmHg 96%
21:00 +1°C° 0.3 mm 5 mps 735 mmHg 96%
22:00 +1°C° 0.3 mm 5 mps 735 mmHg 96%
23:00 +1°C° 0.3 mm 5 mps 735 mmHg 96%

21 April, Wednesday

Time Temperature Precipitation Wind Pressure Humidity
00:00 +1°C° 0.2 mm 5 mps 735 mmHg 96%
01:00 +1°C° 0.2 mm 5 mps 735 mmHg 96%
02:00 +1°C° 0.2 mm 5 mps 735 mmHg 97%
03:00 +1°C° 0.2 mm 5 mps 735 mmHg 96%
04:00 +1°C° 0.2 mm 6 mps 736 mmHg 96%
05:00 +1°C° 0.2 mm 6 mps 736 mmHg 96%
06:00 +1°C° 0.2 mm 6 mps 736 mmHg 96%
07:00 +1°C° 0.2 mm 6 mps 737 mmHg 96%
08:00 +2°C° 0.2 mm 6 mps 737 mmHg 96%
09:00 +2°C° 0.2 mm 6 mps 738 mmHg 92%
10:00 +3°C° 0.2 mm 6 mps 739 mmHg 88%
11:00 +4°C° 0.2 mm 6 mps 739 mmHg 84%
12:00 +5°C° 0.1 mm 6 mps 740 mmHg 79%
13:00 +7°C° 0.1 mm 6 mps 740 mmHg 75%
14:00 +8°C° 0.1 mm 6 mps 741 mmHg 70%
15:00 +8°C° 0.1 mm 6 mps 741 mmHg 69%
16:00 +8°C° 0.1 mm 5 mps 742 mmHg 67%
17:00 +9°C° 0.1 mm 5 mps 743 mmHg 66%
18:00 +7°C° 0 mm 4 mps 743 mmHg 71%
19:00 +6°C° 0 mm 4 mps 744 mmHg 76%
20:00 +5°C° 0 mm 3 mps 744 mmHg 81%
21:00 +5°C° 0 mm 3 mps 745 mmHg 82%
22:00 +4°C° 0 mm 3 mps 745 mmHg 82%
23:00 +4°C° 0 mm 4 mps 746 mmHg 83%
Show more

We Need Your Consent

Meteoprog and our Service Providers may store and access personal data such as cookies, device identifiers or other similar technologies on your device and process such data to personalise content and ads, as well as provide social media features and to analyse the traffic.

  • Store and/or access information on your device

    Cookies, device identifiers or other information can be stored or accessed on your device for the purposes indicated above.

  • Personalised ads and content, ad and content measurement, audience insights, and products development

    Ads and content can be personalised based on a profile. More data can be added to better personalise ads and content. Ad and content performance can be measured. Insights about the audience who saw the ads and content can be derived. Such data can be used to develop or improve user’s experience, systems and software.

By clicking ‘I Agree’ you will allow the use of indicated cookies, device identifiers, web beacons or other similar technologies. Your settings can be changed in the browser on your device.

For certain purposes, legitimate interests may be relied on, rather than consent. You can read more about this in our Privacy and Cookie Policy.